FW6663 Weather Reports


time (UTC)temp
C
wind
direction
speed
KPH
gust
KPH
rain 1hr
cm
rain 24hr
cm
rain mn
cm
humidity
%
barometer
mb
20260505151559 10 158 1.6 6.4 0.00 0.00 0.00 94 1008.7
20260505124530 11 0 1.6 6.4 0.00 0.00 0.00 94 1009.5
20260505123044 11 143 1.6 8.0 0.00 0.00 0.00 95 1009.6
20260505121528 10 134 1.6 11.3 0.00 0.00 0.00 95 1009.6
20260505120042 10 136 3.2 8.0 0.00 0.00 0.00 94 1009.6
20260505114532 11 148 0.0 4.8 0.00 0.00 0.00 95 1009.8
20260505113032 11 195 1.6 8.0 0.00 0.00 0.00 95 1009.9
20260505111534 10 146 0.0 4.8 0.00 0.00 0.00 94 1009.9
20260505101529 11 137 1.6 6.4 0.00 0.00 0.00 95 1010.1
20260505100033 11 109 1.6 4.8 0.00 0.00 0.00 95 1010.0
20260505094531 10 123 1.6 8.0 0.00 0.00 0.00 95 1010.1
20260505093030 10 136 1.6 8.0 0.00 0.00 0.00 95 1010.0
20260505091528 10 163 1.6 4.8 0.00 0.00 0.00 95 1010.1
20260505090027 10 165 1.6 6.4 0.00 0.00 0.00 95 1010.0
20260505084531 10 129 1.6 8.0 0.00 0.00 0.00 95 1010.1
20260505083028 10 0 0.0 4.8 0.00 0.00 0.00 95 1010.2
20260505081528 10 141 1.6 4.8 0.00 0.00 0.00 95 1010.1
20260505080030 10 141 1.6 4.8 0.00 0.00 0.00 95 1010.3
20260505074533 10 0 0.0 1.6 0.00 0.00 0.00 95 1010.3
20260505073028 10 136 0.0 3.2 0.00 0.00 0.00 95 1010.2
20260505071528 10 0 0.0 3.2 0.00 0.00 0.00 95 1010.3
20260505070031 10 134 0.0 3.2 0.00 0.00 0.00 95 1010.3
20260505064534 11 134 1.6 3.2 0.00 0.00 0.00 95 1010.3
20260505063028 11 154 1.6 3.2 0.00 0.00 0.00 95 1010.3
20260505061528 11 149 1.6 6.4 0.00 0.00 0.00 95 1010.4
20260505060029 11 144 0.0 3.2 0.00 0.00 0.00 94 1010.4
20260505054544 11 0 0.0 1.6 0.00 0.00 0.00 95 1010.4
20260505053028 11 158 1.6 4.8 0.00 0.00 0.00 94 1010.4
20260505051532 11 141 1.6 3.2 0.00 0.00 0.00 94 1010.3
20260505041528 11 136 1.6 4.8 0.00 0.00 0.00 94 1010.3
20260505040032 11 0 0.0 0.0 0.00 0.00 0.00 94 1010.5
20260505034538 12 0 0.0 0.0 0.00 0.00 0.00 95 1010.6
20260505033032 12 0 0.0 0.0 0.00 0.00 0.00 95 1010.6
20260505031530 12 0 0.0 0.0 0.00 0.00 0.00 95 1010.6
20260505030042 12 0 0.0 0.0 0.00 0.00 0.00 95 1010.8
20260505024530 12 0 0.0 0.0 0.00 0.00 0.00 94 1010.8
20260505023039 12 0 0.0 0.0 0.00 0.00 0.00 94 1010.8
20260505021532 12 0 0.0 0.0 0.00 0.00 0.00 94 1010.8
20260505020029 12 0 0.0 0.0 0.00 0.00 0.00 94 1010.8
20260505014535 12 0 0.0 0.0 0.00 0.00 0.00 94 1010.8
20260505013028 12 0 0.0 0.0 0.00 0.00 0.00 94 1010.9
20260505011530 12 0 0.0 0.0 0.00 0.00 0.00 94 1010.9
20260505010029 12 0 0.0 0.0 0.00 0.00 0.00 94 1011.0
20260505004553 12 0 0.0 1.6 0.00 0.00 0.00 94 1011.1
20260505003030 12 136 1.6 3.2 0.00 0.00 0.00 94 1011.2
20260505001535 12 136 1.6 3.2 0.00 0.00 0.00 94 1011.3
20260505000036 12 138 1.6 3.2 0.00 0.00 0.00 94 1011.4
20260504234530 12 139 1.6 3.2 0.00 0.00 0.00 94 1011.5
20260504233028 12 0 0.0 1.6 0.00 0.00 0.00 94 1011.5
20260504231529 12 160 1.6 3.2 0.00 0.00 0.00 94 1011.7
20260504230031 12 0 0.0 0.0 0.00 0.00 0.00 94 1011.8
20260504224534 12 0 0.0 0.0 0.00 0.00 0.00 94 1011.9
20260504223028 12 0 0.0 0.0 0.00 0.00 0.00 94 1012.0
20260504221536 12 0 0.0 0.0 0.00 0.00 0.00 94 1012.1
20260504220029 12 0 0.0 0.0 0.00 0.00 0.00 94 1012.2
20260504214529 12 0 0.0 0.0 0.00 0.00 0.00 94 1012.3
20260504213037 12 0 0.0 0.0 0.00 0.00 0.00 93 1012.4
20260504211534 12 0 0.0 0.0 0.00 0.00 0.00 94 1012.4
20260504210032 12 0 0.0 0.0 0.00 0.00 0.00 93 1012.6
20260504204533 12 0 0.0 0.0 0.00 0.00 0.00 93 1012.7
20260504203030 13 0 0.0 0.0 0.00 0.00 0.00 93 1012.8
20260504201530 13 0 0.0 0.0 0.00 0.00 0.00 93 1012.8
20260504200030 13 0 0.0 0.0 0.00 0.00 0.00 93 1012.7
20260504194530 13 0 0.0 0.0 0.00 0.00 0.00 93 1012.4
20260504193030 13 0 0.0 0.0 0.00 0.00 0.00 93 1012.3
20260504191541 13 0 0.0 0.0 0.00 0.00 0.00 92 1012.1
20260504190031 13 0 0.0 0.0 0.00 0.00 0.00 92 1012.1
20260504184541 13 0 0.0 0.0 0.00 0.00 0.00 92 1012.2
20260504183029 13 0 0.0 1.6 0.00 0.00 0.00 92 1012.1
20260504181533 14 0 0.0 0.0 0.00 0.00 0.00 92 1012.0
20260504180034 14 0 0.0 0.0 0.00 0.00 0.00 91 1012.0
20260504174528 14 0 0.0 0.0 0.00 0.00 0.00 91 1012.1
20260504173028 14 0 0.0 0.0 0.00 0.00 0.00 91 1012.0
20260504171530 14 0 0.0 0.0 0.00 0.00 0.00 91 1012.0